MB7UUE Weather Reports


time (UTC)temp
F
wind
direction
speed
knots
gust
knots
rain 1hr
in
rain 24hr
in
rain mn
in
humidity
%
barometer
mb
20260510112522 55 18 7.8 15.6 0.00 0.00 0.00 63 1017.4
20260510110622 55 347 5.2 15.6 0.00 0.00 0.00 63 1017.5
20260510104723 55 335 4.3 15.6 0.00 0.00 0.00 63 1017.5
20260510102823 55 0 7.0 15.6 0.00 0.00 0.00 63 1017.4
20260510100922 55 16 4.3 15.6 0.00 0.00 0.00 63 1017.4
20260510095023 55 23 7.8 15.6 0.00 0.00 0.00 64 1017.4
20260510093122 55 349 2.6 15.6 0.00 0.00 0.00 66 1017.4
20260510091222 55 0 11.3 15.6 0.00 0.00 0.00 65 1017.5
20260510085323 55 354 2.6 15.6 0.00 0.00 0.00 65 1017.6
20260510083423 54 41 5.2 15.6 0.00 0.00 0.00 67 1017.9
20260510081522 54 4 5.2 15.6 0.00 0.00 0.00 68 1017.9
20260510075623 54 50 6.1 15.6 0.00 0.00 0.00 69 1017.9
20260510073723 53 4 0.0 15.6 0.00 0.00 0.00 72 1017.9
20260510071823 52 8 4.3 15.6 0.00 0.00 0.00 73 1017.9
20260510065924 52 349 6.1 14.8 0.00 0.00 0.00 75 1017.9
20260510064023 52 0 1.7 14.8 0.00 0.00 0.00 76 1017.9
20260510063654 52 353 0.9 14.8 0.00 0.00 0.00 78 1017.9
20260510061755 51 0 4.3 14.8 0.00 0.00 0.00 79 1017.8
20260510055855 50 2 1.7 11.3 0.00 0.00 0.00 81 1017.6
20260510053954 50 348 2.6 11.3 0.00 0.00 0.00 82 1017.5
20260510052054 49 6 6.1 11.3 0.00 0.00 0.00 83 1017.5
20260510050154 49 359 7.0 11.3 0.00 0.00 0.00 83 1017.5
20260510044254 49 0 7.0 11.3 0.00 0.00 0.00 84 1017.5
20260510042355 49 356 4.3 11.3 0.00 0.00 0.00 84 1017.5
20260510040456 49 337 4.3 11.3 0.00 0.00 0.00 85 1017.6
20260510034554 49 337 4.3 11.3 0.00 0.00 0.00 85 1017.7
20260510032655 49 337 5.2 11.3 0.00 0.00 0.00 85 1017.8
20260510030756 49 323 4.3 11.3 0.00 0.00 0.00 85 1018.0
20260510024856 49 353 5.2 11.3 0.00 0.00 0.00 83 1017.9
20260510022955 49 4 7.8 11.3 0.00 0.00 0.00 83 1017.6
20260510021055 49 338 5.2 10.4 0.00 0.00 0.00 82 1018.0
20260510015155 49 6 0.0 5.2 0.00 0.00 0.00 76 1018.1
20260510013254 50 321 0.0 0.0 0.00 0.00 0.00 76 1018.0
20260510011356 50 343 0.0 0.0 0.00 0.00 0.00 76 1017.9
20260510005455 51 350 0.0 0.0 0.00 0.00 0.00 75 1017.7
20260510003555 51 337 0.0 0.0 0.00 0.00 0.00 74 1017.8
20260510001654 52 344 0.0 0.0 0.00 0.00 0.00 71 1017.9
20260509235754 52 343 0.0 0.0 0.00 0.00 0.00 66 1018.1
20260509233855 52 354 0.0 0.0 0.00 0.00 0.00 66 1018.0
20260509231953 52 9 0.0 0.0 0.00 0.00 0.00 66 1018.1
20260509230054 53 130 0.0 0.0 0.00 0.00 0.00 64 1018.1
20260509224155 53 125 0.0 12.2 0.00 0.00 0.00 63 1017.9
20260509222253 54 130 0.0 12.2 0.00 0.00 0.00 63 1018.0
20260509220354 55 130 0.0 12.2 0.00 0.00 0.00 61 1018.0
20260509214453 55 133 0.0 12.2 0.00 0.00 0.00 59 1017.8
20260509212553 56 151 0.0 12.2 0.00 0.00 0.00 57 1017.6
20260509210653 56 83 0.0 12.2 0.00 0.00 0.00 55 1017.4
20260509204754 57 114 0.0 12.2 0.00 0.00 0.00 53 1017.5
20260509202853 57 146 0.0 12.2 0.00 0.00 0.00 49 1017.4
20260509200954 58 99 0.0 12.2 0.00 0.00 0.00 47 1017.2
20260509195055 59 175 0.0 12.2 0.00 0.00 0.00 45 1017.1
20260509193155 59 335 0.0 12.2 0.00 0.00 0.00 43 1016.9
20260509191255 60 129 0.0 12.2 0.00 0.00 0.00 40 1017.0
20260509185353 61 170 1.7 12.2 0.00 0.00 0.00 37 1016.8
20260509183454 61 44 0.0 12.2 0.00 0.00 0.00 36 1016.8
20260509181554 62 158 2.6 12.2 0.00 0.00 0.00 32 1016.7
20260509175654 63 104 4.3 12.2 0.00 0.00 0.00 33 1016.5
20260509173755 64 165 1.7 12.2 0.00 0.00 0.00 36 1016.5
20260509171855 64 198 5.2 12.2 0.00 0.00 0.00 35 1016.6
20260509165954 65 181 7.0 12.2 0.00 0.00 0.00 34 1016.6
20260509164054 65 61 2.6 12.2 0.00 0.00 0.00 36 1016.7
20260509162155 66 191 8.7 12.2 0.00 0.00 0.00 36 1016.8
20260509160254 66 156 5.2 12.2 0.00 0.00 0.00 36 1017.0
20260509154355 66 170 5.2 12.2 0.00 0.00 0.00 37 1017.0
20260509152455 67 182 7.8 12.2 0.00 0.00 0.00 34 1017.0
20260509150553 67 73 1.7 12.2 0.00 0.00 0.00 34 1016.8
20260509150502 67 73 1.7 12.2 0.00 0.00 0.00 34 1016.8
20260509144601 67 167 5.2 12.2 0.00 0.00 0.00 34 1016.5
20260509142702 67 118 4.3 12.2 0.00 0.00 0.00 37 1016.3
20260509140800 68 59 5.2 12.2 0.00 0.00 0.00 38 1016.5
20260509134900 68 4 5.2 12.2 0.00 0.00 0.00 38 1016.5
20260509133000 68 149 7.0 12.2 0.00 0.00 0.00 37 1016.6
20260509131101 68 108 4.3 12.2 0.00 0.00 0.00 37 1016.7
20260509125200 67 41 0.9 12.2 0.00 0.00 0.00 37 1017.0
20260509123301 67 43 4.3 12.2 0.00 0.00 0.00 37 1017.1
20260509121401 67 28 0.0 11.3 0.00 0.00 0.00 39 1017.3
20260509115502 67 1 0.0 11.3 0.00 0.00 0.00 40 1017.5